"Pseudo-MPEC" for JNS023

Created 2019 Jan 12 22:18:12 UT using Find_Orb

Click here for an explanation of pseudo-MPECs

 
 Astrometry: 
     JNS023   C2019 01 12CYXAstrometryB]ROhuIh;4(c/redacted;#rG'#H@rCsfF9NDr,Q66
     JNS023   C2019 01 12_;w4click??OSGlb$XKy[MsSpl?hereq`G;XT'hmwe[+0oRV11tiQ66
     JNS023   C2019 01 12Jdm#Z:v+DFXR(FE%fZAqDj#!4NjKHn5pqIdGUdk!forvw)wvbcV]Q66
     JNS023   C2019 01 12M7(L)LQ+@f!kie9D)^6]#2F@i]explanationTC1kxmq'tH2:hh`Q66

Station data:
(Q66) Siding Spring-Janess-G, JAXA  (S31.273299 E149.064250)  Australia/NSW.

Orbital elements:  JNS023
   Perigee 2019 Jan 14.897591 +/- 6.23 TT = 21:32:31 (JD 2458498.397591)
Epoch 2019 Jan 13.0 TT = JDT 2458496.5                        AutoNEOCP
M 206.45884677 +/- 490              (J2000 equator)
n  80.91374064 +/- 14.9             Peri.   52.76109 +/- 13
a114267.305 +/- 13930               Node   214.93200 +/- 0.6
e   0.6667250 +/- 0.0603            Incl.   43.46281 +/- 0.28
P6406.70m/4.449d           H 28.4   G  0.15   U 14.6  
q 38082.4285 +/- 10078    Q 190452.182 +/- 17875
From 4 observations 2019 Jan. 12 (2.1 hr); mean residual 0".09
Residuals in arcseconds: 
190112 Q66  .09-  .10-    190112 Q66  .09-  .09-    
190112 Q66  .09+  .10+    190112 Q66  .08+  .08+    

Ephemerides (geocentric):
Date (UTC) HH   RA              Dec         delta   r     elong  mag " sig PA
---- -- -- --  -------------   -----------  ------ ------ -----  --- ---- ---
2019 01 12 22  05 37 14.071   -35 43 44.65  188819 .98404 116.2 16.2 1380 102
2019 01 12 23  05 41 19.350   -36 08 17.70  188211 .98405 116.2 16.2 1579 102
2019 01 13 00  05 45 28.922   -36 32 29.03  187507 .98405 116.3 16.2 1794 102
2019 01 13 01  05 49 43.133   -36 56 18.70  186705 .98405 116.3 16.1 2028 102
2019 01 13 02  05 54 02.347   -37 19 46.67  185805 .98405 116.3 16.1 2282 102
2019 01 13 03  05 58 26.951   -37 42 52.72  184806 .98405 116.4 16.1 2557 102
2019 01 13 04  06 02 57.356   -38 05 36.49  183708 .98404 116.4 16.1 2856 102
2019 01 13 05  06 07 34.002   -38 27 57.42  182509 .98404 116.4 16.1 3180 102
2019 01 13 06  06 12 17.358   -38 49 54.79  181209 .98404 116.4 16.1 3533 102
2019 01 13 07  06 17 07.926   -39 11 27.63  179806 .98404 116.4 16.1 3915 101
2019 01 13 08  06 22 06.246   -39 32 34.74  178300 .98404 116.4 16.0 4331 101
2019 01 13 09  06 27 12.899   -39 53 14.66  176689 .98403 116.4 16.0 4782 101
2019 01 13 10  06 32 28.513   -40 13 25.58  174972 .98403 116.4 16.0 5273 100
2019 01 13 11  06 37 53.766   -40 33 05.35  173147 .98402 116.4 16.0 5808 100
2019 01 13 12  06 43 29.392   -40 52 11.43  171213 .98402 116.3 16.0 6390  99
2019 01 13 13  06 49 16.190   -41 10 40.77  169168 .98401 116.3 15.9 7024  99
2019 01 13 14  06 55 15.026   -41 28 29.76  167010 .98401 116.2 15.9 7716  98
2019 01 13 15  07 01 26.845   -41 45 34.18  164737 .98400 116.2 15.9 8471  97
2019 01 13 16  07 07 52.681   -42 01 49.01  162346 .98400 116.1 15.8 9297  97
2019 01 13 17  07 14 33.662   -42 17 08.36  159837 .98399 116.0 15.8 170'  96
2019 01 13 18  07 21 31.025   -42 31 25.27  157205 .98398 115.9 15.8 187'  95
2019 01 13 19  07 28 46.128   -42 44 31.52  154448 .98397 115.7 15.7 205'  94
2019 01 13 20  07 36 20.464   -42 56 17.39  151564 .98396 115.6 15.7 225'  93
2019 01 13 21  07 44 15.676   -43 06 31.33  148549 .98395 115.4 15.7 247'  92
2019 01 13 22  07 52 33.576   -43 14 59.63  145400 .98394 115.2 15.6 271'  91
2019 01 13 23  08 01 16.167   -43 21 25.90  142113 .98393 115.0 15.6 298'  89
2019 01 14 00  08 10 25.662   -43 25 30.54  138684 .98392 114.8 15.5 328'  88
2019 01 14 01  08 20 04.512   -43 26 49.95  135110 .98391 114.5 15.5 361'  87
2019 01 14 02  08 30 15.434   -43 24 55.62  131386 .98390 114.2 15.4 399'  85
2019 01 14 03  08 41 01.448   -43 19 12.92  127507 .98388 113.8 15.4 440'  84
2019 01 14 04  08 52 25.910   -43 08 59.55  123469 .98387 113.4 15.3 488'  82
2019 01 14 05  09 04 32.558   -42 53 23.50  119266 .98385 112.9 15.3 541'  80
2019 01 14 06  09 17 25.571   -42 31 20.40  114893 .98384 112.4 15.2 602'  78
2019 01 14 07  09 31 09.629   -42 01 29.99  110346 .98382 111.7 15.1 671'  76
2019 01 14 08  09 45 50.008   -41 22 11.29  105618 .98380 111.0 15.1 751'  73
2019 01 14 09  10 01 32.693   -40 31 16.13  100706 .98378 110.1 15.0 844'  71
2019 01 14 10  10 18 24.559   -39 26 00.14   95607 .98376 109.1 14.9 952'  68
2019 01 14 11  10 36 33.634   -38 02 50.16   90318 .98374 107.9 14.8  18d  66
2019 01 14 12  10 56 09.515   -36 17 06.46   84843 .98372 106.4 14.7  21d  63
2019 01 14 13  11 17 24.065   -34 02 37.33   79188 .98369 104.7 14.7  24d  60
2019 01 14 14  11 40 32.581   -31 11 03.15   73372 .98367 102.5 14.6  27d  57
2019 01 14 15  12 05 55.833   -27 31 06.59   67430 .98364  99.9 14.5  32d  54
2019 01 14 16  12 34 03.724   -22 47 29.73   61427 .98361  96.6 14.4  38d  51
2019 01 14 17  13 05 42.047   -16 39 55.84   55479 .98358  92.4 14.3  45d  49
2019 01 14 18  13 42 05.319   -08 43 35.58   49787 .98355  87.2 14.3  55d  47
2019 01 14 19  14 25 21.299   +01 24 44.70   44688 .98352  80.8 14.4  67d  46
2019 01 14 20  15 19 14.113   +13 44 33.43   40694 .98350  73.8 14.5  82d  48
2019 01 14 21  16 29 47.474   +27 02 19.14   38444 .98348  67.4 14.8 100d  54